Location: El Álamo
(40.2307°N, 3.9945°W)
Time: 03:30:52
(UTC+00:00)

ERS-1 Rocket - Pass Details

Date: 19 May 2025
Orbit: 747 x 753 km, 98.2° (Epoch: 23 June)

Event Time Altitude Azimuth Distance (km) Brightness Sun altitude
Exits shadow 20:04:55 - 125° (SE) 2,428 4.9 -6.8°
Reaches altitude 10° 20:05:23 10° 122° (ESE) 2,272 4.8 -6.8°
Maximum altitude 20:09:29 26° 67° (ENE) 1,452 4.2 -7.5°
Drops below altitude 10° 20:13:36 10° 12° (NNE) 2,284 5.8 -8.1°
Sets 20:16:12 0° 360° (N) 3,213 6.8 -8.5°
